RH
37 44 40 28 24 22 23 21 19 19 18 17 16 15 14 12 11 11 10 10 11 12 13 10 9 19 23 38 35 62 72 25 34 32 18 25 23 32 42 42 26 23 21 24 28
41 41 45 45 44 35 28 25 22 20 18 20 18 16 16 13 12 12 10 10 11 12 12 11 12 37 39 44 42 54 54 29 32 43 20 25 33 49 50 49 37 32 30 39 43
46 42 45 41 39 38 34 30 28 23 19 20 20 18 17 15 14 14 10 10 11 12 11 12 16 37 56 61 57 50 42 38 33 48 33 21 34 50 60 53 54 53 36 40 42
38 40 40 41 39 36 37 36 35 30 26 19 19 20 19 16 16 14 11 10 12 13 11 13 15 37 55 63 56 56 44 45 42 51 41 35 25 41 55 54 52 53 39 34 38
36 36 36 33 31 33 34 32 33 35 30 27 20 20 19 17 17 16 13 12 14 14 11 15 16 26 63 48 71 59 47 52 36 29 32 47 29 28 45 60 58 53 37 36 28
29 31 33 32 32 34 30 28 26 28 31 27 27 20 18 18 17 17 14 18 18 16 14 14 18 22 30 50 70 48 71 67 64 68 55 51 57 62 33 36 53 63 53 45 40
27 25 26 27 27 27 28 26 25 25 24 26 25 22 17 16 17 16 16 19 20 18 16 14 17 21 20 27 34 42 96 97 76 54 70 58 56 56 70 44 23 40 46 49 47
18 19 20 23 24 23 22 22 23 23 23 23 24 24 21 16 17 16 17 19 21 20 18 13 17 18 17 16 18 32 73 98 86 66 82 78 65 54 39 51 39 19 24 30 45
11 13 15 18 19 19 18 17 18 19 19 18 20 24 23 17 16 17 16 19 19 19 18 16 12 16 16 15 16 17 52 89 99 91 93 84 70 47 30 34 36 36 31 23 24
10 10 10 11 13 14 16 15 15 15 15 14 17 22 23 20 15 17 18 17 19 18 19 17 16 14 16 18 33 16 14 38 78 100 100 99 72 58 41 16 17 47 57 47 28
17 14 12 10 10 10 11 11 12 12 12 11 14 20 21 22 19 16 17 17 18 19 19 17 15 16 14 18 16 15 12 14 21 81 100 100 87 51 38 13 12 29 72 73 49
21 20 18 15 12 10 9 9 9 9 10 10 12 16 20 22 20 17 16 16 17 18 18 18 17 14 16 15 14 12 11 11 18 41 100 100 57 47 21 18 19 27 41 78 75
23 22 21 19 17 14 12 10 10 9 9 9 11 14 18 19 18 15 17 16 16 17 19 18 18 16 13 14 14 12 11 12 57 100 100 92 48 25 21 26 20 24 27 66 71
28 27 28 28 23 20 18 14 13 11 9 9 10 12 16 18 16 14 15 16 17 16 19 18 18 16 14 14 17 12 14 15 92 100 94 70 25 12 19 38 32 25 25 37 46
32 33 30 26 32 28 23 21 18 14 11 10 10 11 11 13 12 13 13 15 15 16 17 17 18 16 15 14 16 12 14 25 41 93 87 68 19 9 10 13 14 18 22 36 58
30 34 34 32 30 30 30 25 22 19 17 14 11 10 10 11 11 11 11 13 14 17 17 18 19 18 16 15 16 13 18 28 60 86 57 54 11 14 15 15 16 15 16 17 19
35 40 34 32 31 35 33 30 28 24 22 18 16 12 10 10 10 11 10 12 14 17 19 18 18 21 18 17 17 17 24 49 75 88 71 41 11 15 14 12 13 13 12 15 23
44 44 41 37 35 34 33 34 32 27 28 23 19 16 12 11 11 12 9 10 13 16 19 19 19 20 21 21 19 24 36 49 56 86 69 30 11 14 14 14 15 15 16 17 16
55 49 51 44 41 38 35 33 31 32 25 29 21 20 16 14 13 14 10 10 12 16 21 22 18 18 27 28 23 22 33 36 54 77 66 56 14 11 14 16 16 15 16 15 23
51 53 54 53 48 50 45 36 32 31 30 25 24 21 21 17 15 15 12 12 12 14 22 21 20 19 29 29 26 21 26 42 58 97 72 63 34 23 12 15 15 14 13 13 14
51 53 53 53 57 55 58 52 40 37 34 30 24 27 24 21 18 17 17 15 12 13 18 20 21 22 37 35 28 24 23 50 72 78 79 72 56 27 12 14 13 12 11 12 11
52 51 53 52 53 61 63 57 49 47 40 34 29 25 30 25 22 18 19 18 14 13 14 23 27 32 42 34 33 33 51 60 65 75 87 58 53 32 10 12 12 11 9 9 8
34 35 39 45 45 48 62 64 51 48 50 42 33 30 30 31 26 21 19 21 19 14 15 20 31 32 44 44 47 39 35 72 57 94 76 66 56 26 10 10 11 11 9 9 9
31 32 31 32 34 38 44 60 61 49 46 53 41 34 34 32 28 26 20 23 23 16 13 18 31 38 48 68 52 38 27 54 69 62 88 71 29 14 13 15 16 14 10 13 14
39 33 28 28 28 30 33 43 53 53 48 48 52 41 34 32 32 28 23 21 24 19 16 21 33 44 51 46 51 34 26 45 58 47 79 80 53 46 49 15 19 16 13 16 17
46 36 35 33 30 31 27 33 44 47 41 45 49 51 42 34 36 31 27 22 21 20 15 20 32 38 58 64 61 44 36 33 48 37 84 100 97 97 74 36 16 12 14 15 15
34 33 32 35 36 33 30 29 30 35 37 34 46 46 47 36 31 36 32 24 22 26 19 19 33 37 49 61 70 49 47 43 52 39 64 99 100 100 78 64 18 10 13 14 14
Wind_Speed
29 26 24 23 23 22 20 19 19 17 15 14 16 15 17 16 13 14 13 13 12 11 14 15 17 18 15 15 23 19 25 23 15 20 21 21 15 19 19 17 14 18 18 17 12
36 33 31 29 27 25 25 23 21 19 17 15 15 15 15 14 14 14 14 13 12 12 12 14 16 19 15 17 23 17 22 19 12 15 19 18 15 18 17 17 15 15 15 16 14
43 40 39 35 34 33 29 27 25 22 19 17 17 16 15 14 12 14 14 12 11 12 11 13 16 16 15 15 20 20 20 15 11 11 18 17 12 11 15 15 16 16 15 15 13
49 48 46 44 43 38 35 34 30 28 24 22 20 19 17 16 12 14 14 10 9 9 9 11 14 15 15 14 19 20 19 14 10 11 15 16 11 6 7 9 10 14 14 14 15
52 52 51 51 50 48 46 41 38 34 30 27 23 22 18 19 13 12 12 7 9 8 8 9 13 14 12 13 15 16 23 30 19 12 15 17 12 5 4 4 7 9 11 12 13
55 54 53 50 51 50 48 44 41 39 37 34 30 28 23 23 17 11 11 4 9 10 9 8 11 13 12 14 14 10 9 14 16 20 27 23 17 16 5 5 6 7 7 8 6
60 59 56 52 50 51 52 49 45 42 42 39 36 33 27 28 23 14 12 8 10 12 12 9 8 11 13 12 14 5 6 10 12 17 19 17 21 21 12 3 8 9 7 4 4
63 60 59 57 54 54 55 52 50 45 44 44 41 37 34 31 26 21 17 13 12 13 13 10 7 9 9 9 11 6 8 5 10 13 16 15 19 18 11 5 5 10 10 8 8
62 64 64 63 60 60 57 56 54 51 48 45 44 43 38 33 30 25 21 18 17 17 14 14 12 10 11 11 10 10 2 3 5 10 13 13 16 20 12 7 2 9 7 9 8
57 59 61 63 64 65 63 62 60 57 54 50 47 43 44 40 34 28 24 22 23 21 19 16 16 12 11 12 12 12 7 3 2 8 13 15 14 14 20 6 2 10 8 6 8
42 49 56 58 59 62 64 65 65 62 58 52 49 45 45 41 39 36 32 25 27 27 22 19 15 16 13 12 13 14 10 5 4 7 10 12 15 19 17 9 5 7 13 9 9
32 34 37 45 55 60 60 59 60 58 56 53 51 47 46 43 37 36 38 35 33 32 25 22 18 15 16 13 14 14 11 10 6 4 6 10 13 19 13 5 2 10 16 14 13
29 29 31 34 38 45 55 58 57 56 56 53 52 50 49 46 42 40 38 38 37 34 29 27 21 16 16 15 14 15 12 4 10 4 3 7 17 17 6 9 5 7 17 18 15
20 29 34 33 33 35 38 46 53 55 55 54 54 51 54 52 48 45 42 37 40 36 31 32 24 19 15 17 14 15 11 11 9 5 4 10 13 4 13 15 12 8 14 15 14
13 15 22 33 35 35 35 35 41 48 52 53 52 52 56 54 51 48 48 41 40 39 34 33 25 22 19 16 13 14 10 7 5 3 4 10 8 10 18 16 14 12 14 13 11
16 17 15 19 27 35 36 35 37 39 41 46 50 51 55 55 54 50 51 48 42 41 36 32 27 25 20 15 13 12 8 3 9 7 3 11 6 16 16 18 16 15 15 14 12
20 20 20 17 17 20 25 35 39 36 40 39 43 51 55 57 55 53 54 53 47 43 40 37 30 28 22 17 11 10 3 6 10 6 5 10 12 18 16 19 21 21 22 24 20
24 22 24 22 21 20 19 22 28 40 39 40 41 46 53 57 56 55 55 54 52 49 44 41 35 31 24 19 10 7 2 4 8 5 5 9 7 20 16 16 16 18 21 21 20
31 29 26 26 25 25 25 23 22 26 37 41 41 44 48 53 56 57 56 54 54 52 48 46 40 34 27 23 13 10 7 5 10 5 4 9 6 13 14 12 11 11 17 18 15
34 35 33 31 30 29 31 30 26 20 26 38 42 43 46 49 54 59 58 55 53 54 53 50 44 36 30 26 18 12 11 6 7 5 3 5 5 7 11 9 7 6 10 16 12
36 37 39 38 36 35 36 35 32 27 24 27 40 46 46 46 51 58 61 58 55 54 54 52 46 40 34 29 22 15 13 5 6 3 4 2 5 4 9 8 5 5 6 14 14
43 43 41 41 41 42 43 41 36 34 31 28 30 43 46 46 48 56 62 62 58 54 53 51 49 44 41 33 24 17 16 12 11 7 1 5 3 4 6 8 4 5 7 15 14
49 50 51 50 48 47 48 48 44 39 37 35 31 34 46 47 49 54 60 60 58 54 54 56 51 49 42 34 25 24 23 18 15 15 6 4 2 2 8 9 7 5 8 16 17
57 58 58 58 58 57 55 54 52 49 42 41 39 35 39 50 51 52 58 64 62 59 55 55 56 51 45 40 38 32 26 24 21 21 11 7 8 6 7 11 10 6 8 15 15
65 64 65 65 64 66 65 62 60 59 53 47 45 43 40 47 53 55 56 64 66 61 58 58 57 55 51 46 40 34 27 27 27 20 14 9 8 1 6 4 6 5 7 11 9
68 73 71 74 73 72 72 71 70 67 63 56 52 52 48 47 57 58 59 62 68 65 60 59 60 59 56 48 41 34 28 29 24 22 16 10 6 4 6 4 4 4 5 7 5
72 73 77 80 83 82 82 82 80 79 72 66 61 57 54 51 54 61 63 60 63 68 62 59 63 62 58 53 46 36 28 26 27 22 18 16 13 11 10 6 7 6 6 5 4
Wind_Direction
235 237 242 239 238 238 242 242 243 247 251 255 263 273 279 286 294 303 313 304 321 350 341 353 358 11 23 38 34 33 16 10 50 45 49 44 66 88 89 91 121 120 113 104 102
241 239 240 245 246 245 247 245 248 247 247 253 260 268 276 283 291 298 303 300 316 334 337 352 2 17 14 37 37 29 15 10 43 56 56 55 68 83 82 89 92 95 103 106 119
244 243 244 246 247 249 249 251 252 251 249 244 250 261 270 281 293 291 298 307 310 320 338 355 1 21 14 41 32 30 28 23 53 70 65 61 71 81 91 88 91 89 96 104 105
245 245 246 248 249 248 248 248 251 255 255 247 247 255 266 274 287 293 293 311 306 316 332 352 359 15 9 41 28 50 39 39 78 78 73 59 73 103 95 94 94 100 95 92 97
249 247 248 250 249 250 251 247 250 250 253 256 251 253 256 269 274 287 292 306 316 319 332 351 0 11 1 14 16 74 58 50 57 61 77 61 59 102 164 142 125 117 112 102 94
251 248 249 251 251 252 252 249 248 247 251 252 254 255 255 261 263 267 278 290 320 328 344 347 358 360 358 5 353 39 74 32 27 29 44 66 57 54 44 221 198 160 142 124 104
248 248 248 250 251 251 252 249 248 249 247 249 253 252 252 254 255 246 253 264 301 318 341 339 345 356 9 4 357 49 100 35 4 9 21 49 45 40 47 19 236 230 223 193 156
248 249 249 250 250 251 251 248 247 247 249 250 251 252 251 249 250 242 234 253 278 296 318 329 325 336 3 13 17 51 117 37 347 354 8 13 2 13 58 55 248 223 218 226 221
249 249 249 247 248 251 251 250 248 246 247 249 250 249 251 247 245 242 236 239 262 276 298 315 310 315 338 356 16 13 32 58 352 327 342 354 4 11 9 37 210 216 197 208 221
249 248 249 248 249 250 249 249 250 250 249 250 248 246 246 244 243 241 244 238 254 265 278 298 308 306 321 343 355 358 14 236 283 294 321 323 341 355 350 335 311 202 196 209 213
250 250 249 246 245 247 248 249 250 251 249 248 245 241 245 241 244 239 244 240 248 256 267 279 302 314 308 335 343 347 359 350 267 259 295 325 337 345 336 318 273 215 193 207 221
245 245 247 247 245 245 245 245 247 247 247 245 240 238 238 234 237 245 239 241 246 251 258 269 285 303 315 334 339 343 353 347 331 279 259 307 348 338 329 328 243 199 186 188 201
253 248 244 244 245 243 242 243 244 244 243 239 237 233 233 232 235 240 239 237 241 247 250 259 275 288 312 326 337 341 0 356 92 134 270 311 342 331 9 66 68 176 165 171 175
260 253 250 248 245 242 242 238 239 240 240 238 234 231 232 234 235 237 238 233 235 239 243 252 264 276 300 312 332 331 352 5 105 148 320 335 344 350 69 64 62 94 144 158 162
263 262 252 243 244 244 241 238 236 236 236 235 234 229 230 231 233 231 234 232 231 233 237 247 254 265 286 299 320 328 345 6 116 146 351 355 344 80 70 70 71 82 98 115 144
269 262 262 255 248 245 244 241 237 233 233 231 229 227 227 228 230 229 231 231 229 231 233 238 240 253 268 281 300 330 337 106 124 122 79 4 92 85 83 87 88 88 88 91 95
270 267 267 261 256 252 248 245 242 238 233 226 225 225 224 225 224 224 226 225 223 225 227 232 234 239 254 267 285 327 310 130 131 132 29 25 108 104 102 103 101 92 85 82 80
276 272 265 260 260 256 253 248 242 236 232 230 223 222 221 221 221 222 224 223 222 219 221 225 224 228 241 248 258 281 285 166 123 129 59 47 110 113 108 96 89 92 86 80 78
266 268 266 266 258 254 251 251 248 240 233 230 224 220 220 219 218 218 221 220 219 217 215 219 225 227 226 235 237 243 236 220 143 121 63 28 104 110 111 100 90 90 93 89 82
264 262 261 260 258 258 253 248 248 245 237 230 225 222 220 217 215 216 219 219 217 216 215 216 217 220 218 228 228 237 246 201 152 188 347 22 43 51 122 106 96 80 92 90 85
265 263 261 256 255 255 253 252 250 246 244 237 226 223 221 215 214 213 214 215 215 215 213 216 214 212 209 217 221 229 234 201 177 212 321 47 336 306 145 120 105 97 99 88 87
262 260 257 254 253 252 252 250 246 246 243 240 232 225 221 216 213 212 212 213 212 213 212 209 209 206 205 210 214 221 220 211 198 131 194 335 296 286 170 124 93 97 88 84 77
265 262 257 254 250 247 249 249 247 241 238 237 235 228 222 217 214 212 212 212 212 211 212 208 204 206 202 204 209 219 212 211 206 161 156 67 123 234 152 117 91 81 94 89 74
263 259 258 254 250 248 245 244 245 243 236 232 232 230 225 218 213 213 211 209 209 209 210 207 203 203 197 195 206 210 206 206 212 165 150 128 127 128 133 110 93 92 90 81 74
270 263 256 252 249 247 245 242 239 240 237 229 228 229 227 217 213 212 210 209 207 207 206 203 201 201 198 201 205 208 208 208 205 174 157 151 168 35 23 110 114 119 96 77 76
269 265 261 256 250 245 243 242 238 235 235 230 225 224 224 220 212 211 210 208 207 207 204 203 202 199 199 198 205 205 209 213 206 199 166 179 227 296 312 347 198 159 102 79 77
268 263 257 253 252 249 243 239 236 235 231 229 225 222 221 221 217 210 210 208 206 205 204 203 204 201 200 196 201 204 207 215 211 204 183 183 198 273 267 295 241 173 110 105 100